Home   Weather   Hallein   Past weeks

Flag for Austria Past Weather in Hallein, Salzburg, Austria — Yesterday and Last 2 Weeks

Now
63 °F

Passing clouds.


Feels Like: 63 °F
Forecast: 50 / 68 °F
Wind: 5 mph from South

Location: Salzburg-Flughafen

Current Time: Sep 30, 2016 at 8:34:05 PM

Latest Report: Sep 30, 2016 at 7:50 PM


Visibility: N/A

Pressure: 30.01 "Hg

Humidity: 68%

Dew Point: 52 °F

Location of HalleinLocation

Past Weather in Hallein — Graph

°F

Hallein Temperature Yesterday

Maximum temperature yesterday: 75 °F (at 1:50 PM)
Minimum temperature yesterday: 52 °F (at 2:20 AM)
Average temperature yesterday: 61 °F

High & Low Weather Summary for the Past Weeks

 TemperatureHumidityPressure
High75 °F (Sep 29, 1:50 PM)100% (Sep 16, 5:20 AM)30.42 "Hg (Sep 16, 5:20 AM)
Low41 °F (Sep 22, 4:20 AM)36% (Sep 30, 2:20 PM)29.86 "Hg (Sep 15, 7:20 PM)
Average58 °F82%30.13 "Hg
* Reported Sep 15 7:20 PM — Sep 30 7:20 PM, Hallein, Weather by CustomWeather, © 2016

Note: Actual official high and low records may vary slightly from our data, if they occured in-between our weather recording intervals... More about our weather records

Advertising

Hallein Weather History for the Previous 24 Hours

Scroll right to see more
 ConditionsComfort  
Time TempWeatherWind HumidityBarometerVisibility
7:20 PM
Fri, Sep 30
66 °FPassing clouds.3 mph64%30.01 "HgN/A
6:50 PM66 °FPartly cloudy.1 mph64%30.01 "HgN/A
6:20 PM72 °FBroken clouds.2 mph41%30.01 "HgN/A
5:50 PM73 °FBroken clouds.6 mph38%29.98 "HgN/A
5:20 PM73 °FScattered clouds.6 mph38%29.98 "HgN/A
4:50 PM75 °FPassing clouds.5 mph39%29.98 "HgN/A
4:20 PM75 °FPassing clouds.5 mph36%30.01 "HgN/A
3:50 PM75 °FPassing clouds.5 mph39%30.01 "HgN/A
3:20 PM75 °FPassing clouds.5 mph39%30.01 "HgN/A
2:50 PM75 °FPassing clouds.6 mph39%30.04 "HgN/A
2:20 PM75 °FPassing clouds.3 mph36%30.04 "HgN/A
1:50 PM75 °FPassing clouds.2 mph39%30.04 "HgN/A
1:20 PM75 °FPassing clouds.6 mph41%30.07 "HgN/A
12:50 PM73 °FPassing clouds.3 mph47%30.07 "HgN/A
12:20 PM72 °FPassing clouds.6 mph47%30.07 "HgN/A
11:50 AM70 °FPassing clouds.6 mph53%30.07 "HgN/A
11:20 AM68 °FPassing clouds.6 mph53%30.09 "HgN/A
10:50 AM66 °FSunny.9 mph60%30.09 "Hg10 mi
10:20 AM64 °FSunny.10 mph64%30.09 "Hg10 mi
9:50 AM61 °FSunny.10 mph68%30.09 "Hg10 mi
9:20 AM59 °FPassing clouds.10 mph68%30.09 "HgN/A
8:50 AM57 °FSunny.10 mph72%30.09 "Hg10 mi
8:20 AM57 °FSunny.13 mph72%30.09 "Hg10 mi
7:50 AM55 °FSunny.12 mph77%30.09 "Hg10 mi
7:20 AM54 °FSunny.10 mph77%30.09 "Hg10 mi
6:50 AM54 °FClear.9 mph82%30.09 "Hg10 mi
6:20 AM54 °FClear.9 mph82%30.09 "Hg10 mi
5:50 AM54 °FClear.12 mph82%30.09 "Hg10 mi
5:20 AM54 °FCool.9 mph82%30.09 "HgN/A
4:50 AM55 °FCool.9 mph77%30.09 "HgN/A
4:20 AM55 °FPassing clouds.10 mph77%30.09 "HgN/A
3:50 AM55 °FCool.10 mph77%30.09 "HgN/A
3:20 AM57 °FCool.10 mph72%30.12 "HgN/A
2:50 AM55 °FCool.10 mph77%30.12 "HgN/A
2:20 AM55 °FCool.10 mph82%30.12 "HgN/A
1:50 AM57 °FCool.12 mph77%30.12 "HgN/A
1:20 AM57 °FCool.10 mph77%30.12 "HgN/A
12:50 AM57 °FPassing clouds.10 mph77%30.12 "HgN/A
12:20 AM57 °FPassing clouds.10 mph77%30.12 "HgN/A
11:50 PM
Thu, Sep 29
57 °FPassing clouds.9 mph77%30.12 "HgN/A
11:20 PM59 °FPassing clouds.8 mph72%30.12 "HgN/A
10:50 PM59 °FClear.9 mph72%30.12 "Hg10 mi
10:20 PM59 °FClear.9 mph77%30.12 "Hg10 mi
9:50 PM59 °FClear.10 mph77%30.12 "Hg10 mi
9:20 PM57 °FClear.7 mph77%30.12 "Hg10 mi
8:50 PM57 °FClear.8 mph77%30.12 "Hg10 mi
8:20 PM59 °FClear.6 mph77%30.12 "Hg10 mi
Weather by CustomWeather, © 2016

See weather overviewHow to use our weather pages